Location: Newark
(47.5989°N, 4.6950°E)
Time: 03:27:17
(UTC+00:00)

Envisat - Pass Details

Date: 21 November 2019
Orbit: 764 x 766 km, 98.1° (Epoch: 07 December)

Event Time Altitude Azimuth Distance (km) Brightness Sun altitude
Rises 19:23:13 0° 226° (SW) 3,223 6.7 -34.0°
Maximum altitude 19:28:44 10° 276° (W) 2,307 6.3 -35.0°
Drops below altitude 10° 19:28:50 10° 277° (W) 2,308 6.3 -35.0°
Sets 19:34:19 0° 325° (NW) 3,242 6.8 -35.9°
